Theta_e
303 303 303 303 303 304 304 304 304 304 304 304 304 304 304 304 304 304 304 304 305 305 305 305 306 307 307 307 307 312 318 320 320 320 321 320 318 317 317 319 317 317 323 322 318 318 324 326 322 330 344 350 351 353 354 356 357 356 358 359 358 358 358 359 355 350 352 353 351 352 351 352 353 351 351 351 352 352 353 353 352 352 350 350 350 349 347 346
303 303 303 303 303 303 304 304 304 304 304 304 304 304 304 304 304 304 304 304 304 305 305 305 305 306 307 307 307 309 315 319 320 321 323 321 319 318 318 320 318 316 322 321 318 317 321 324 322 333 347 350 350 352 353 355 356 355 356 358 358 358 355 352 352 349 348 351 350 351 351 351 352 351 351 353 353 350 351 353 353 353 351 351 351 349 348 347
303 304 303 304 304 304 304 304 304 304 304 304 304 304 304 304 304 304 304 304 304 305 305 305 305 306 307 308 308 308 313 317 319 323 325 323 322 320 318 320 318 316 320 320 320 318 319 320 321 335 348 349 349 351 352 354 357 356 354 357 357 354 351 348 348 347 347 350 349 350 351 350 350 350 351 353 352 350 351 353 353 353 352 351 350 350 349 347
304 304 304 304 304 304 304 304 304 304 304 304 304 304 304 304 304 304 304 304 304 305 305 305 305 305 306 308 309 310 314 318 321 324 324 323 323 321 318 318 318 317 318 321 321 318 318 318 321 336 345 345 347 349 351 353 356 356 354 356 354 350 352 350 347 347 346 348 348 350 350 350 350 350 351 352 351 351 350 352 353 353 352 351 350 350 349 348
304 304 304 305 305 305 305 305 305 305 305 305 305 305 304 304 305 305 305 305 305 305 305 305 305 305 306 309 310 312 317 322 324 323 323 322 323 322 318 317 318 318 319 321 320 319 318 318 324 335 340 340 342 344 348 351 353 354 353 354 352 348 351 350 347 347 346 347 349 349 350 350 349 350 351 351 352 352 350 352 352 352 352 350 350 350 348 348
305 305 305 305 305 305 305 305 305 305 305 305 305 305 305 305 306 307 307 307 307 307 307 306 305 305 306 309 312 314 317 324 324 323 323 322 323 322 317 317 318 318 319 321 320 320 319 320 328 333 334 336 337 339 343 347 350 352 352 351 351 350 350 348 346 347 347 347 348 348 349 349 348 349 352 352 352 352 351 352 352 352 352 350 349 349 349 349
304 305 305 305 305 305 305 305 305 305 306 305 305 305 305 307 308 309 309 310 310 310 309 308 306 304 306 310 312 314 316 321 323 323 323 322 323 323 317 317 318 318 319 320 320 322 321 322 330 332 331 334 335 336 339 343 346 349 349 349 349 350 349 349 348 346 347 348 348 348 348 347 348 349 350 351 352 352 351 351 352 352 352 350 349 349 350 350
305 305 305 305 305 305 305 305 305 306 306 306 306 305 307 309 309 310 311 311 311 311 311 310 308 305 306 310 313 315 315 318 322 324 323 321 323 323 317 316 318 318 318 319 319 321 322 323 327 331 332 334 335 335 337 339 341 344 346 347 347 348 348 347 347 346 347 347 348 347 347 346 347 349 348 349 352 352 351 351 352 353 352 351 350 351 352 351
304 305 305 305 305 305 305 305 306 306 306 306 306 306 308 309 310 311 310 310 310 311 312 311 310 307 306 310 314 316 316 318 322 324 323 321 322 321 317 316 317 317 318 319 318 319 324 325 325 329 332 333 334 335 336 339 341 342 344 346 346 346 347 346 345 345 346 346 347 347 346 346 346 348 347 347 350 351 351 352 352 353 352 352 352 352 352 352
305 305 305 305 305 305 305 306 306 306 306 306 306 307 309 309 309 309 309 309 309 310 312 312 312 310 307 310 315 318 319 322 323 323 324 322 322 320 317 317 317 316 317 318 318 319 323 324 323 327 330 331 333 334 335 338 341 341 342 343 345 345 346 345 344 344 345 344 346 346 346 346 345 347 348 347 349 351 351 352 352 353 352 352 352 352 353 352
305 305 305 305 305 305 305 306 306 306 306 305 306 308 309 310 309 308 308 307 310 313 314 314 314 314 310 310 315 318 317 322 324 323 324 322 322 320 317 317 317 317 318 318 318 318 319 321 324 327 329 330 331 333 334 336 337 338 339 340 342 343 344 344 344 344 344 344 345 345 345 345 345 346 348 348 350 351 351 352 352 352 352 352 352 352 353 352
305 305 305 305 305 305 305 305 305 306 306 306 307 308 309 310 309 309 308 309 314 314 311 311 312 316 314 310 313 315 314 322 324 323 321 319 322 322 319 317 318 318 318 319 318 317 317 321 327 329 330 329 328 332 333 334 336 335 337 339 340 341 341 341 341 343 343 344 345 344 345 346 346 346 346 349 350 351 351 352 352 352 352 352 352 352 352 352
305 305 305 305 305 305 305 305 305 306 305 306 307 308 309 309 309 309 308 312 315 311 310 309 308 315 315 311 313 312 313 318 321 322 318 316 320 323 321 317 317 318 318 319 319 318 317 323 329 329 329 326 325 330 330 330 333 335 336 338 339 340 340 338 338 342 344 344 345 344 345 348 347 344 346 350 351 351 351 352 352 351 352 351 351 351 352 352
305 305 305 305 305 304 305 305 305 306 305 306 307 308 309 309 309 307 309 315 316 312 312 309 310 315 314 313 312 312 312 312 317 320 317 315 320 323 322 319 315 316 318 317 319 318 316 322 328 327 326 325 323 325 325 325 330 335 335 337 339 338 338 338 337 343 345 345 345 344 344 347 347 344 348 350 350 351 351 351 351 351 352 351 351 351 352 352
304 305 305 305 305 304 305 305 305 305 305 306 307 308 309 309 308 307 312 319 319 316 312 309 312 316 315 316 314 314 313 311 315 319 317 316 320 323 322 321 317 315 317 317 318 318 317 321 324 323 323 323 322 323 324 326 329 332 332 333 336 335 335 337 337 343 346 344 345 344 344 346 346 346 350 350 350 351 350 350 351 350 351 351 351 351 351 352
305 305 305 305 305 304 304 305 305 305 305 306 307 309 310 309 307 307 313 320 321 316 311 311 316 319 319 321 317 318 318 318 320 322 322 318 320 323 323 322 321 318 316 317 318 317 318 320 322 321 321 322 323 324 326 328 329 331 331 330 332 333 332 335 339 342 344 345 345 345 346 349 347 347 351 351 350 350 350 350 350 350 351 351 351 351 351 352
305 305 305 305 305 305 304 304 304 305 305 307 308 309 309 308 307 309 314 319 318 312 310 314 319 320 323 321 317 321 321 322 323 322 323 320 320 323 323 323 322 320 318 318 319 319 319 320 320 321 321 321 323 326 327 326 327 329 330 329 331 333 333 335 340 341 342 346 347 346 348 350 349 348 350 351 350 350 350 350 350 350 350 350 351 351 351 352
305 305 305 305 305 304 304 304 304 304 306 309 309 309 308 306 307 312 315 315 311 310 314 320 321 319 321 317 317 320 318 319 321 320 322 321 321 322 324 324 322 322 322 321 321 321 320 320 320 321 321 321 322 325 326 326 327 327 328 329 330 332 333 334 338 340 342 346 348 346 347 348 348 349 351 350 350 350 350 350 349 350 350 350 350 350 351 351
306 305 305 305 305 304 304 304 304 304 306 309 309 308 307 306 307 312 313 310 307 309 314 319 319 317 316 313 313 314 312 313 314 317 321 321 322 322 324 324 323 323 323 322 322 321 321 322 321 321 321 322 323 324 325 327 329 329 330 331 330 330 331 334 337 340 343 345 347 347 346 347 348 349 351 350 350 350 349 350 350 350 350 350 350 350 350 350
308 306 305 305 305 304 304 303 304 305 307 308 308 306 307 307 308 310 309 307 308 308 309 311 311 311 311 311 311 311 310 310 311 314 319 321 322 323 323 324 323 323 323 323 322 321 321 323 322 321 320 322 324 326 327 328 329 330 331 331 331 330 330 333 336 339 343 344 346 347 346 348 348 349 350 350 350 350 349 350 349 350 350 349 350 350 350 350
310 308 306 305 305 304 304 304 304 305 307 308 306 305 307 307 307 307 307 307 308 308 309 310 310 309 311 311 312 311 310 310 312 315 319 320 321 324 324 324 323 323 322 322 323 323 322 322 322 321 322 324 327 329 329 328 328 329 329 329 330 330 330 333 333 335 340 344 344 346 345 347 348 348 350 350 350 350 349 349 350 349 349 349 349 349 350 350
310 310 308 306 305 304 304 304 305 305 306 306 305 305 307 307 307 307 306 307 308 308 310 312 312 311 312 312 312 310 309 310 312 315 319 319 320 323 324 323 323 323 323 322 324 325 323 323 322 323 326 328 330 330 329 328 329 328 328 327 326 328 330 332 333 333 335 340 343 345 345 345 347 347 348 350 350 349 350 350 349 349 349 349 349 349 349 349
309 310 309 306 305 305 304 305 305 304 304 305 305 306 307 307 308 307 306 307 309 310 313 314 313 311 312 312 312 311 309 310 312 314 317 318 319 323 323 323 323 322 322 323 324 324 324 324 324 326 328 329 330 330 328 328 328 327 327 325 324 327 328 329 332 332 334 338 340 343 343 342 345 347 347 348 349 349 349 350 350 350 349 349 349 349 348 349
308 310 310 307 305 305 305 305 305 305 304 305 306 306 307 307 308 307 307 307 308 310 313 315 313 311 311 312 312 311 311 310 311 313 315 316 318 322 322 322 323 322 323 323 324 324 325 326 326 328 329 329 329 329 328 327 327 327 327 325 324 327 327 328 331 332 332 334 335 336 336 339 345 346 347 347 348 349 349 349 349 349 349 349 349 349 348 349
308 310 310 307 305 305 305 306 306 305 305 306 306 307 308 308 308 307 307 309 311 313 314 314 313 312 311 312 312 311 311 312 312 314 314 314 317 320 322 322 322 322 322 323 324 324 325 326 325 327 329 329 329 329 328 327 326 326 327 326 326 327 327 328 330 331 329 329 334 332 329 337 346 345 347 347 347 349 348 349 349 348 349 348 349 349 348 349
308 309 310 307 305 306 307 307 306 306 307 307 308 308 308 309 308 307 309 313 317 317 314 312 312 312 311 312 312 312 312 313 314 314 314 314 315 318 321 322 322 322 323 324 324 324 324 325 326 327 328 329 330 329 328 328 326 324 326 327 327 328 327 327 328 329 327 328 334 332 329 334 341 342 347 347 346 349 347 347 349 348 349 348 348 349 348 349
308 309 310 307 305 307 308 308 307 308 308 308 309 309 309 309 308 308 311 317 320 315 311 311 311 311 311 311 312 313 312 313 314 314 314 314 314 315 319 321 322 321 322 324 324 324 325 325 326 327 327 327 328 329 329 328 325 324 327 328 327 328 327 326 326 327 329 330 330 332 330 330 334 339 345 346 346 348 348 347 348 347 348 348 348 349 349 349
309 309 310 307 306 308 308 308 308 308 308 308 309 309 310 310 308 310 314 316 317 313 309 310 311 310 310 311 311 312 312 312 313 314 315 316 314 314 317 319 320 322 323 324 323 325 326 325 326 327 327 327 327 328 330 328 326 326 328 328 327 328 327 327 327 326 329 328 324 328 328 327 334 344 344 346 347 347 348 347 347 347 347 348 348 348 349 349
310 310 309 307 308 309 309 308 309 308 308 308 309 310 311 309 309 314 315 313 312 311 309 309 310 309 309 310 311 311 312 311 312 312 314 316 316 314 316 318 318 321 323 323 324 327 328 326 326 326 326 327 327 328 330 329 328 328 330 330 328 328 327 328 329 328 327 326 323 325 325 324 333 343 343 344 346 345 348 347 346 346 346 347 348 348 349 349
310 311 308 306 309 310 309 309 309 308 308 308 309 310 310 309 315 319 314 311 311 309 309 309 308 309 309 309 310 310 311 311 311 312 313 316 317 315 316 319 318 319 321 323 325 327 328 327 327 326 327 327 328 328 328 329 329 329 330 330 329 330 330 330 332 329 325 324 323 324 326 324 327 335 341 344 345 345 346 346 345 345 345 346 347 348 349 349
310 311 307 307 310 310 310 311 309 308 308 308 310 310 309 311 321 321 312 309 311 309 309 308 307 308 308 309 309 309 310 310 311 312 312 314 316 316 316 319 319 319 320 320 322 325 327 328 328 328 327 327 328 328 327 329 329 330 331 329 328 328 328 327 327 327 325 324 325 325 327 323 323 331 340 344 346 345 345 346 346 345 344 345 345 347 348 349
310 310 307 308 311 311 311 312 310 309 308 308 309 310 311 313 317 317 312 310 311 309 308 308 307 307 308 309 309 309 309 310 310 311 311 313 316 315 315 315 316 318 319 318 320 323 325 327 329 329 329 329 329 328 328 328 329 330 330 328 326 325 326 326 325 325 325 328 331 328 325 322 323 329 336 342 345 344 344 344 344 344 344 345 345 346 347 348
309 309 308 310 311 311 311 311 311 309 308 309 308 309 316 319 315 312 310 310 310 309 307 307 307 307 308 309 308 308 309 309 310 311 310 312 315 315 314 313 313 315 317 318 318 319 321 324 327 327 329 329 329 328 326 326 328 329 327 326 325 325 326 327 326 324 323 327 329 326 324 323 323 328 331 337 343 344 343 343 343 344 344 344 345 345 346 348
309 310 310 311 311 310 310 311 310 309 309 308 309 313 318 319 315 311 309 308 309 308 307 307 307 307 308 309 308 308 309 309 310 310 310 312 314 315 314 312 312 312 314 317 318 318 318 320 324 326 327 329 330 328 327 328 328 329 329 328 325 325 326 327 327 325 323 325 324 322 323 323 323 331 334 332 337 342 342 344 343 343 344 344 345 345 346 347
309 311 311 311 312 310 310 311 309 309 309 307 311 318 317 313 313 311 308 308 308 307 307 307 307 307 308 308 308 308 309 309 309 309 310 312 314 315 314 312 312 311 312 318 319 318 318 319 321 325 326 327 330 329 327 328 326 327 330 328 324 326 327 327 328 328 324 324 322 320 326 329 329 337 338 329 332 339 340 342 343 342 344 344 344 345 345 347
309 311 311 311 311 310 310 309 309 309 308 309 315 318 314 311 311 310 309 309 307 307 307 307 308 307 307 308 308 308 309 309 309 309 310 311 313 314 313 312 312 310 311 314 315 317 322 323 320 322 325 325 328 329 327 327 326 327 327 326 327 328 326 324 325 326 321 319 322 321 322 326 325 329 331 327 330 336 338 341 341 340 343 343 344 345 345 346
309 310 311 311 310 310 310 309 310 308 307 312 317 317 314 310 308 308 309 308 307 307 307 307 308 307 307 307 307 307 309 309 309 310 310 311 313 312 312 311 311 311 310 311 313 316 319 322 319 320 326 324 323 327 328 327 328 327 324 325 327 327 327 325 322 323 320 319 324 324 320 320 321 328 335 330 329 333 336 339 340 340 342 343 344 345 345 347
308 310 311 311 310 310 310 310 310 307 309 316 318 317 314 309 306 308 308 306 307 307 308 307 307 308 307 307 307 307 309 309 309 310 310 311 313 312 311 311 311 311 310 310 314 314 315 320 322 321 323 323 321 323 324 326 326 326 326 326 327 324 323 323 322 322 321 319 322 324 323 322 321 328 334 329 327 332 335 337 339 340 341 343 344 345 345 347
308 310 311 310 309 310 310 310 309 308 312 318 317 315 312 308 307 308 307 307 307 307 308 307 307 308 307 306 306 307 308 309 309 309 310 311 313 313 311 311 311 311 310 310 312 312 314 322 326 322 321 320 321 321 320 322 324 325 326 327 328 326 322 323 323 321 322 323 322 321 321 323 326 330 331 329 330 332 335 338 339 338 340 341 343 344 345 346
307 309 310 309 309 310 309 309 308 309 313 314 312 311 309 308 309 308 308 308 307 307 308 307 306 307 306 306 307 307 308 309 309 309 310 311 312 312 311 311 310 310 310 311 311 312 315 320 323 322 319 320 324 323 320 321 323 322 322 322 324 325 323 323 323 322 325 328 327 321 317 323 334 336 331 332 333 329 333 340 341 338 339 341 343 344 345 346
306 309 310 309 308 309 309 309 309 309 311 310 309 308 308 309 309 308 309 309 307 307 307 307 307 306 306 307 307 307 307 309 310 310 310 311 311 311 311 311 310 309 310 311 311 312 316 319 320 320 320 322 324 323 322 323 323 322 322 322 322 322 322 321 321 323 325 326 329 325 317 323 336 335 329 332 335 329 329 337 342 340 338 341 343 344 345 345
305 308 309 308 308 308 308 310 309 309 310 310 309 308 308 309 309 308 309 308 307 307 307 307 307 307 307 307 308 308 308 310 311 311 310 310 309 310 311 311 310 310 310 311 311 312 316 318 319 318 318 319 319 320 320 321 323 324 323 323 324 325 321 319 320 323 321 322 328 327 318 323 338 339 331 328 330 328 325 330 339 340 339 341 342 343 346 345
305 307 308 307 307 307 308 310 310 309 309 309 309 308 308 309 308 308 309 308 308 307 307 307 307 307 308 307 307 308 308 310 311 311 310 309 309 311 311 310 310 310 310 310 311 313 316 317 316 315 319 320 319 321 321 321 323 325 324 323 323 324 322 322 326 327 322 319 322 322 318 324 342 353 342 331 328 327 322 324 333 338 340 342 342 343 345 345
305 306 308 307 307 307 309 309 309 309 309 309 308 308 308 309 308 308 308 308 308 307 306 307 307 307 307 307 308 307 307 309 310 311 311 310 310 311 310 310 310 309 309 310 312 313 314 316 315 317 326 328 321 322 326 326 323 319 321 322 322 324 324 325 328 326 323 321 320 320 318 322 340 356 346 335 334 333 326 323 327 335 339 342 343 343 345 346
305 307 307 307 307 307 308 308 308 308 309 309 309 308 308 308 308 308 308 308 307 307 307 306 307 307 307 307 308 307 307 308 309 310 312 310 310 310 310 310 310 309 310 313 315 313 313 315 315 317 324 327 323 323 325 323 318 315 319 321 321 324 322 323 325 321 321 325 322 319 319 322 335 343 335 332 336 337 332 324 323 331 337 340 343 344 345 347
306 308 308 307 307 306 306 307 307 307 308 309 309 309 308 308 308 308 308 308 307 307 307 307 307 307 307 307 308 307 307 307 308 311 313 312 310 310 310 310 310 310 312 314 314 312 313 316 315 316 318 319 319 319 317 316 315 315 318 318 319 321 321 324 324 320 324 329 323 321 323 324 327 330 327 328 332 336 335 327 323 328 335 340 343 344 345 347
305 307 307 307 308 307 306 306 305 306 308 309 309 309 308 308 308 308 308 308 308 307 307 308 307 307 308 308 308 308 308 308 309 310 313 313 310 309 310 310 310 311 311 311 311 312 314 315 314 315 316 314 314 315 313 314 314 314 315 316 318 321 323 324 321 321 330 327 319 325 331 325 323 327 328 326 330 337 340 331 325 328 335 340 343 344 345 346
306 306 305 305 307 307 306 306 305 305 307 308 309 309 309 309 308 307 308 308 308 308 308 309 308 308 309 308 308 308 308 309 310 309 311 312 310 310 311 310 310 310 310 309 309 310 313 313 312 313 314 313 312 312 312 313 313 314 316 317 319 321 324 324 322 324 331 324 319 333 341 330 324 327 327 325 331 337 335 329 325 329 337 341 343 345 345 346
305 306 305 305 306 306 306 306 306 306 307 308 310 310 309 309 308 308 308 308 308 308 308 309 308 308 308 308 308 308 308 309 310 310 310 310 310 312 314 312 311 311 309 308 309 309 311 314 314 312 312 312 311 312 312 313 315 316 318 321 323 325 326 326 324 326 330 327 326 337 343 335 327 327 328 327 330 332 329 327 328 333 339 341 343 344 345 346
305 305 305 305 305 305 306 306 306 307 307 308 310 310 309 309 309 308 308 308 308 309 308 308 308 308 308 308 309 309 308 309 310 310 309 309 309 312 315 314 313 312 309 308 309 310 311 313 313 312 312 312 311 313 314 313 314 317 322 326 327 329 328 325 326 328 327 329 330 333 337 336 332 336 340 334 330 333 335 333 332 335 338 340 342 343 344 346
305 306 305 305 305 306 306 306 306 306 307 309 310 310 309 308 308 308 309 308 308 308 308 308 308 308 308 308 309 309 308 308 309 309 308 308 308 310 313 313 312 311 310 309 309 309 310 312 312 311 312 312 312 313 313 313 317 323 327 327 329 334 332 329 334 337 334 332 332 331 331 333 338 346 346 338 337 346 352 342 333 334 338 339 340 343 344 345
305 306 305 305 306 306 306 306 305 306 309 309 308 308 308 307 308 308 309 308 307 308 308 308 308 308 309 309 309 309 308 308 308 308 307 308 307 307 309 310 310 311 311 310 310 309 310 311 311 312 313 314 313 311 313 319 327 333 330 326 329 336 338 338 340 340 337 339 338 335 333 336 342 342 341 348 358 365 364 351 339 335 338 339 340 342 344 345
Wind_Speed
22 22 22 22 22 22 22 22 22 22 22 22 21 21 21 21 21 20 20 18 17 16 14 13 13 12 13 13 14 15 15 17 17 21 24 13 6 14 16 16 20 20 21 22 23 24 25 21 19 24 25 22 18 17 18 14 12 8 3 2 2 3 3 3 4 4 3 5 7 11 17 12 7 11 12 11 8 13 15 11 19 11 8 23 23 34 42 40
22 22 23 23 23 23 23 23 23 23 23 23 22 22 21 21 21 21 21 20 18 17 15 14 13 12 13 13 14 14 15 17 18 25 21 6 4 15 20 18 22 25 24 26 26 26 28 26 24 27 26 19 15 15 14 12 13 9 2 1 4 4 4 4 3 5 5 7 10 12 17 14 11 15 14 9 8 14 12 10 17 14 17 22 26 39 40 41
23 23 23 23 23 23 23 23 23 23 23 23 23 23 22 22 22 22 22 21 20 18 16 14 13 12 13 13 13 13 14 15 20 25 14 7 13 17 22 22 25 28 25 25 26 25 26 25 26 28 24 16 14 14 12 11 11 10 5 2 6 6 4 8 8 8 10 13 12 11 15 12 14 19 15 10 9 12 11 13 18 20 25 28 34 41 40 43
23 23 23 23 23 23 23 23 23 23 22 22 23 23 23 22 22 22 22 22 22 20 18 15 13 12 12 13 12 11 12 13 16 16 6 8 14 18 26 27 28 30 27 25 23 22 22 24 28 28 21 13 13 14 11 12 10 7 9 6 5 4 5 13 13 11 11 18 16 13 13 10 16 20 17 16 11 7 13 22 27 29 33 37 40 42 43 43
22 22 22 22 22 22 22 22 22 22 22 22 23 23 23 23 23 23 22 22 22 21 19 17 14 12 12 11 10 9 7 7 5 6 6 6 8 17 28 31 31 31 29 27 24 24 23 26 29 26 18 10 11 11 12 18 13 5 11 14 9 3 3 11 12 11 14 18 15 13 12 12 17 17 18 21 13 12 22 29 32 35 38 42 45 44 44 42
22 22 22 22 22 22 22 22 22 22 22 22 22 22 22 23 22 22 22 22 22 21 19 18 14 11 11 10 9 8 4 3 2 7 5 2 4 14 28 34 34 32 31 28 27 26 24 28 29 22 14 8 9 9 10 20 17 7 9 14 17 12 8 10 7 9 17 18 13 15 15 16 17 12 20 25 19 19 27 31 32 35 40 44 46 45 44 43
23 22 22 22 22 22 22 22 22 21 22 22 22 22 21 22 21 21 21 22 22 20 19 18 15 11 10 9 9 8 11 13 6 4 6 3 3 12 27 35 34 33 34 30 29 27 26 30 28 20 12 6 9 12 9 14 18 11 8 11 17 17 18 20 12 9 17 19 20 21 15 15 16 13 18 24 23 20 24 30 32 34 40 44 45 44 44 45
23 23 22 23 22 23 22 22 22 22 22 21 21 20 20 21 20 19 20 21 21 19 18 17 15 11 9 7 8 8 14 15 6 7 13 7 3 13 30 37 36 34 34 33 33 31 28 30 29 21 11 7 9 13 12 10 12 13 13 14 13 15 21 24 17 14 19 21 22 20 13 16 22 18 15 21 23 21 26 31 33 36 41 44 45 44 43 43
24 23 23 23 23 23 23 23 23 22 22 21 20 20 20 19 19 18 19 21 21 20 18 17 16 12 9 7 7 7 11 11 6 9 14 9 3 14 33 37 38 38 34 34 34 33 30 29 32 23 10 11 11 10 13 9 7 12 19 18 12 14 17 18 15 18 23 20 18 14 10 18 25 18 10 17 23 24 31 34 36 40 42 43 44 44 43 43
24 24 24 24 23 23 24 24 23 23 22 21 20 19 19 18 17 18 20 22 22 21 19 16 16 13 10 7 5 3 5 4 3 10 12 10 4 14 34 34 35 39 35 34 34 34 33 28 32 27 9 11 14 10 12 11 9 12 17 17 16 19 19 19 16 18 23 18 20 16 10 16 23 15 5 13 25 30 36 37 39 42 43 43 43 43 43 42
25 24 24 24 24 24 24 24 24 24 22 21 20 20 19 17 17 20 22 24 21 17 14 14 15 14 12 9 10 7 7 4 5 10 9 7 4 11 30 33 30 36 35 34 34 34 34 30 31 26 9 8 12 11 14 18 17 15 14 14 16 19 19 21 17 16 18 13 23 21 7 11 17 12 7 17 30 36 40 39 41 43 43 43 42 42 41 41
26 25 25 25 24 24 24 25 25 24 22 21 21 21 20 18 19 22 24 21 13 11 14 16 17 14 12 14 18 10 7 8 5 8 4 4 5 5 21 32 28 29 31 32 33 32 33 30 29 26 12 5 6 5 11 21 23 21 15 10 13 12 12 17 15 17 16 10 24 20 3 4 10 10 14 27 35 38 41 40 40 41 41 42 41 40 40 40
27 25 25 25 25 24 24 25 25 24 22 21 21 22 21 21 21 23 23 14 6 9 16 22 21 16 10 15 18 6 6 10 8 8 4 6 9 6 15 31 30 25 25 26 28 30 32 30 29 29 19 6 3 4 7 12 18 19 12 8 9 7 8 12 12 16 15 11 23 19 2 5 8 12 20 33 37 36 37 38 38 38 38 40 40 40 40 41
28 27 25 25 25 25 24 25 25 25 22 21 22 22 23 23 23 24 18 8 8 13 19 25 23 13 10 16 15 8 11 15 14 12 8 9 12 11 13 27 33 31 26 23 22 25 29 30 27 25 22 15 10 10 11 8 7 9 7 6 6 4 7 9 9 12 11 12 26 19 4 7 8 12 24 35 39 37 34 34 36 36 36 39 39 40 40 42
30 28 26 25 26 25 24 25 25 25 23 22 23 24 24 25 26 22 11 6 11 14 22 28 21 10 11 20 16 10 15 14 14 12 11 14 15 16 17 21 29 32 29 26 23 23 27 30 24 17 17 17 12 9 7 4 3 2 4 5 3 5 7 8 7 13 11 10 23 18 3 6 7 12 29 36 39 38 33 33 35 35 36 38 39 40 40 42
31 30 28 26 26 25 25 24 25 25 23 22 23 24 25 27 25 16 8 7 11 16 25 26 14 7 8 12 8 3 6 5 7 7 8 13 17 20 20 19 22 27 29 29 25 22 27 28 22 18 14 9 6 4 3 4 4 2 4 4 3 5 5 6 5 12 16 8 14 15 4 3 4 14 30 36 38 37 32 32 34 35 36 38 38 40 40 40
32 32 30 28 26 26 26 24 25 24 22 22 24 25 26 26 21 12 6 6 13 23 26 17 8 10 11 7 2 2 2 2 4 5 6 10 17 20 20 20 21 26 29 28 22 18 21 22 15 12 11 6 3 4 3 5 5 3 3 4 4 4 4 4 5 7 14 10 10 14 7 3 5 16 27 34 38 34 30 31 34 35 35 37 38 39 40 41
32 32 31 28 26 27 26 25 24 22 21 22 24 26 25 22 17 8 3 11 23 23 14 6 5 7 9 6 6 9 12 12 10 8 6 9 17 21 21 22 21 24 23 18 16 15 16 16 11 5 5 7 6 5 7 7 5 4 4 3 3 4 5 5 5 4 10 10 10 13 10 5 7 16 24 32 37 33 30 33 35 36 36 37 37 37 40 42
32 32 32 29 27 27 26 25 22 20 21 22 24 27 22 22 17 3 5 21 24 12 4 6 5 5 12 19 22 23 26 25 19 13 7 7 16 23 22 20 20 21 16 7 10 16 15 9 8 8 7 11 11 10 10 6 4 4 5 4 4 5 5 6 5 4 9 10 9 13 11 6 9 15 20 28 35 32 31 33 33 35 36 37 37 37 39 41
32 32 33 31 29 28 26 24 19 18 21 22 27 27 22 26 16 4 21 29 17 10 13 16 16 20 24 29 28 26 27 23 19 14 7 5 12 22 23 19 16 16 12 6 7 15 16 7 7 12 13 15 13 11 10 7 7 5 4 5 6 6 6 6 5 5 7 9 9 12 10 8 11 15 18 27 31 26 25 28 29 32 34 35 37 38 39 42
33 31 32 31 29 27 25 22 18 18 21 20 24 23 20 21 10 9 30 28 20 21 20 18 17 20 21 23 22 22 21 15 11 14 10 7 9 16 22 19 11 8 10 9 7 11 14 8 12 16 12 11 10 7 8 10 10 8 5 4 5 6 7 7 6 4 4 6 8 10 9 9 13 14 18 24 24 21 25 28 29 32 35 36 38 39 42 42
34 31 30 30 28 27 24 19 17 19 20 16 19 21 17 18 12 13 20 17 24 27 17 14 10 11 18 16 16 15 12 9 9 15 9 7 9 12 17 16 8 6 9 9 6 7 9 11 16 13 7 7 7 7 9 10 10 8 5 4 5 4 2 7 8 5 3 5 5 7 9 10 13 14 16 22 22 25 34 36 35 37 36 36 39 40 42 42
35 32 29 29 28 26 22 17 16 20 19 15 17 19 15 17 17 17 15 10 19 20 10 8 4 11 21 13 15 12 8 6 10 15 8 5 10 14 15 12 9 7 9 10 9 8 7 11 12 9 8 9 8 7 9 8 7 7 5 5 6 2 1 5 6 3 3 5 4 5 7 8 11 12 12 22 28 29 36 40 39 41 42 42 45 45 44 44
36 33 29 29 27 25 20 15 17 22 19 15 16 17 14 16 18 19 15 6 9 11 5 6 5 13 23 16 15 11 7 7 8 11 8 4 7 12 12 10 10 8 9 12 12 11 7 6 9 10 9 11 10 8 8 8 6 8 9 8 7 5 7 7 4 4 3 4 2 3 3 3 8 12 9 17 24 24 29 33 31 36 41 43 43 43 44 46
37 34 30 29 28 25 19 14 19 22 18 15 16 17 13 15 18 17 12 2 4 7 2 7 8 12 25 22 17 11 7 7 9 15 14 9 8 6 7 10 12 8 10 13 11 11 10 8 11 13 11 11 12 10 8 9 6 7 11 12 10 8 9 6 3 4 4 5 3 4 2 5 6 15 14 12 14 16 20 23 27 33 35 35 37 39 42 44
36 34 29 28 26 24 18 15 20 22 19 18 18 19 15 15 16 11 5 2 3 4 1 9 8 11 26 26 24 14 4 6 16 19 16 11 12 8 6 7 9 9 9 10 6 6 8 9 9 11 13 12 11 11 10 10 6 8 11 11 10 10 10 5 0 2 3 5 5 3 4 5 4 12 17 15 15 18 17 17 25 31 32 34 38 39 42 43
36 34 28 25 23 21 17 15 20 22 21 22 21 21 17 16 13 5 2 2 3 3 3 10 7 11 23 21 24 13 2 15 20 16 23 16 16 14 9 5 6 8 7 6 5 5 8 10 10 9 12 12 10 11 10 11 8 8 8 7 7 9 12 8 3 4 4 4 6 2 3 3 3 9 15 17 19 19 17 18 21 26 31 37 40 41 43 45
35 32 26 23 19 17 16 16 21 22 23 25 23 22 19 15 6 1 3 0 3 4 3 9 9 16 27 20 18 14 5 15 12 16 33 19 12 13 8 4 5 6 8 10 7 5 9 12 13 11 10 10 11 12 10 11 10 6 4 5 6 8 11 6 5 5 4 3 8 7 3 3 4 7 11 15 19 18 19 20 19 23 32 38 40 42 45 47
34 29 24 21 15 13 13 15 21 23 26 27 24 24 20 8 1 4 4 1 2 6 6 11 13 19 31 20 13 16 13 13 9 20 31 18 3 10 8 5 5 5 7 12 9 4 7 12 16 13 10 8 9 10 10 11 9 3 6 5 4 7 8 4 6 5 3 3 10 10 4 3 5 5 7 11 15 17 18 18 18 25 35 40 42 44 45 46
32 26 21 17 13 12 12 16 22 24 28 29 25 23 13 1 4 4 1 2 1 7 8 11 13 17 23 14 8 16 13 10 17 24 27 26 19 6 7 8 5 5 6 9 10 6 5 11 17 13 11 8 6 8 10 13 10 4 5 4 2 5 4 2 4 4 3 6 11 14 8 6 5 5 7 10 13 17 16 15 16 22 31 37 41 43 44 45
32 23 16 12 12 12 14 18 22 24 27 27 26 22 6 3 4 3 1 3 2 5 7 8 11 14 15 9 7 12 8 7 18 21 19 22 24 21 12 5 3 3 4 5 7 7 6 8 8 9 15 13 7 7 10 12 12 6 5 5 3 4 2 0 2 4 7 8 9 12 9 8 7 6 6 12 17 20 19 17 18 19 26 35 40 42 44 47
32 21 11 9 11 12 16 18 18 21 23 25 29 21 3 2 3 2 2 6 3 3 5 6 9 10 11 8 6 10 7 6 13 14 10 9 9 12 11 5 4 3 5 5 3 3 7 9 5 5 15 16 10 7 7 8 10 8 6 6 5 3 2 4 4 4 7 7 7 8 6 6 8 7 9 15 19 21 19 21 25 26 30 38 42 43 45 47
30 18 6 6 9 10 13 15 16 20 21 25 28 15 3 4 1 1 2 4 1 2 4 5 9 9 8 6 6 8 6 6 12 11 7 8 6 5 9 12 13 7 3 4 3 3 5 8 9 9 9 14 14 8 6 7 8 10 8 7 7 5 5 8 5 3 4 4 7 7 5 4 5 6 11 16 19 23 25 28 33 37 40 43 45 47 46 46
27 12 4 5 8 9 11 13 17 20 21 25 21 7 6 3 0 1 2 1 2 3 3 4 8 8 7 6 7 8 4 5 11 10 6 7 7 6 8 15 19 12 5 2 1 3 7 8 10 13 7 10 14 11 9 8 6 10 9 7 8 6 6 7 4 4 4 4 6 5 5 5 5 5 10 15 20 27 32 36 36 36 41 44 43 44 45 45
23 6 3 4 4 6 10 13 15 17 19 21 12 4 5 1 1 1 1 3 2 2 3 5 5 4 6 5 5 8 6 5 9 7 6 6 6 7 7 9 15 14 7 3 4 3 6 6 3 8 8 10 13 11 11 9 6 8 8 8 9 6 4 3 4 5 4 3 5 4 4 5 4 5 6 9 15 22 29 33 30 28 32 34 33 36 41 43
20 3 2 4 3 5 10 12 13 14 15 12 6 4 1 1 1 1 2 1 1 2 3 5 4 2 4 4 4 8 7 5 7 5 4 5 6 7 6 6 12 13 10 4 3 4 4 5 5 8 8 9 13 12 12 11 6 3 7 10 6 5 5 4 4 1 3 4 6 3 4 4 2 5 4 6 9 13 18 22 23 25 29 29 30 34 39 42
23 5 2 7 8 10 11 11 13 14 10 6 4 1 2 2 1 2 1 1 2 1 3 3 3 2 3 3 3 8 7 4 6 5 4 4 4 6 5 5 11 12 12 8 2 2 4 7 10 9 8 9 8 10 12 14 10 4 6 8 4 5 4 4 3 3 2 6 5 1 5 4 3 5 3 7 9 10 13 16 19 23 27 29 33 38 40 43
26 7 2 12 14 14 13 12 13 10 4 5 2 1 1 0 4 4 4 3 2 2 4 1 2 2 2 3 3 7 7 4 6 5 4 4 2 6 6 3 8 13 16 14 3 2 5 5 9 6 6 8 8 5 8 11 14 9 5 7 6 4 6 5 4 5 5 5 5 3 4 5 5 5 5 8 9 9 12 15 17 19 21 26 34 40 43 44
25 8 3 15 19 15 13 9 5 5 5 4 1 2 1 1 7 11 12 8 2 2 3 0 1 2 2 3 3 5 5 4 6 5 3 4 2 5 10 6 6 12 19 15 4 4 5 2 5 4 3 8 6 4 6 8 12 9 5 7 7 5 6 6 4 3 4 4 3 3 3 4 6 5 7 10 10 10 11 13 15 17 20 28 34 38 42 43
24 9 7 22 23 15 10 4 5 9 6 2 0 2 4 2 7 14 18 13 3 1 2 1 2 2 2 3 3 4 3 3 5 4 2 4 3 4 11 10 8 13 17 12 4 4 4 1 4 7 9 7 4 4 5 7 7 7 6 7 7 4 3 5 4 3 4 3 3 3 4 6 6 5 8 10 9 10 12 12 13 16 23 32 36 39 42 44
22 7 10 24 22 14 9 4 7 7 3 1 1 3 6 5 6 12 18 17 8 1 1 1 2 2 1 3 3 3 3 2 3 3 3 5 4 3 9 13 12 13 12 7 4 4 3 1 4 7 7 4 7 6 2 2 4 5 5 6 8 6 4 5 6 2 3 4 4 4 5 7 6 5 8 9 9 9 11 14 12 16 26 33 37 42 45 46
18 6 11 21 19 14 8 7 6 5 2 3 5 5 7 7 6 9 15 17 10 4 3 2 2 3 1 1 1 3 3 2 2 2 2 3 4 3 8 15 16 14 10 5 4 7 5 2 4 7 6 8 17 17 11 9 10 7 6 6 8 6 5 7 7 4 4 4 2 2 3 8 6 6 8 9 11 11 13 15 13 18 30 36 37 43 46 48
17 9 12 19 18 13 7 7 5 4 3 6 8 7 9 7 6 8 12 13 9 6 5 2 2 3 2 1 2 3 4 1 1 1 2 1 3 5 8 14 16 13 8 4 4 8 7 2 3 6 6 9 15 14 10 9 6 4 5 4 5 7 8 7 5 5 5 4 4 2 6 9 6 3 5 7 8 10 12 17 18 19 28 36 39 42 45 47
18 12 12 18 17 11 7 4 3 2 3 7 6 7 10 7 7 9 9 8 8 5 3 2 2 2 2 3 3 4 5 3 1 1 1 1 1 4 8 13 15 10 6 7 6 7 6 2 3 5 4 5 7 5 3 4 4 4 5 6 7 9 10 5 1 3 5 7 8 5 7 10 6 4 4 5 5 6 7 17 25 24 27 34 37 39 43 46
14 9 11 17 18 17 12 4 2 1 3 6 5 5 8 7 8 12 9 6 9 8 3 3 6 6 4 5 4 3 4 3 0 0 1 0 1 2 6 10 12 9 10 13 12 8 4 1 1 2 1 3 4 3 2 4 6 6 7 8 10 9 8 7 3 4 7 7 8 8 10 9 7 8 11 9 5 6 7 12 23 28 31 34 35 37 40 42
7 4 9 14 14 18 14 8 8 4 2 4 4 3 6 5 6 12 10 6 10 13 7 4 9 9 6 6 5 4 3 2 2 0 2 1 1 1 3 7 10 10 11 14 15 9 2 2 2 4 5 6 6 6 8 7 7 9 11 13 14 13 11 6 5 7 7 5 6 9 9 9 11 12 15 14 7 7 8 7 15 24 31 34 36 39 40 41
4 1 3 7 8 9 9 9 12 8 4 5 3 2 6 5 4 8 8 5 10 12 6 4 8 7 5 6 4 3 3 3 2 1 2 2 1 3 3 5 8 9 10 12 16 9 1 2 4 6 9 9 10 14 16 12 11 12 13 15 17 15 11 7 8 8 8 6 7 7 6 9 14 14 17 18 10 7 9 6 13 23 30 33 36 38 39 40
2 0 1 2 3 3 3 7 12 9 7 7 2 1 5 6 5 6 5 6 9 10 5 3 6 6 4 4 3 2 4 3 2 1 1 2 2 2 2 3 5 6 9 10 12 7 1 2 4 5 8 11 13 17 17 13 11 13 14 15 18 18 12 10 12 8 10 9 9 6 7 11 14 15 18 17 9 7 9 12 18 24 29 32 34 35 36 38
3 1 0 2 2 3 5 10 13 9 7 7 3 2 4 5 5 5 4 5 6 6 5 3 6 8 7 4 1 1 3 2 2 2 2 2 3 2 1 2 3 3 5 5 7 5 3 2 3 5 9 14 16 14 12 10 10 12 14 14 15 17 16 14 12 9 10 10 8 7 10 13 13 14 15 10 6 9 11 11 14 19 25 28 30 31 34 36
2 1 2 3 3 6 7 8 8 6 5 5 2 2 4 4 5 6 5 4 5 4 5 5 8 9 8 6 2 2 4 4 4 4 3 3 4 2 2 2 3 2 1 2 4 5 3 2 3 5 7 12 13 8 7 9 10 11 12 11 13 14 13 13 10 8 8 8 5 5 8 10 9 8 7 5 4 6 7 8 14 21 27 28 28 30 33 35
2 2 4 4 3 4 5 5 4 3 3 3 1 3 4 4 6 7 5 4 4 5 5 7 10 8 7 7 4 5 8 7 8 11 10 8 7 6 4 4 5 3 1 2 2 4 3 1 3 4 4 8 7 7 13 15 10 8 7 10 15 11 3 4 2 1 2 5 5 5 5 7 7 4 3 3 7 5 2 4 11 19 25 28 28 29 31 34
4 5 5 4 2 2 3 3 3 2 1 2 4 5 4 6 7 6 4 4 5 9 11 11 10 7 5 6 6 9 14 15 16 20 21 18 17 16 14 11 12 8 3 2 2 3 3 2 2 3 3 6 6 10 16 12 6 4 2 9 14 11 9 8 8 10 8 2 5 6 6 6 6 5 2 3 8 7 6 6 5 12 19 27 31 32 35 37
Wind_Direction
5 3 1 358 357 355 354 353 351 349 346 344 343 343 340 337 336 334 331 328 325 320 318 308 296 292 293 295 289 283 279 275 273 270 261 256 236 216 213 205 199 197 191 184 187 189 182 179 179 179 175 176 189 197 200 214 215 204 200 216 242 221 219 216 194 196 161 145 159 166 167 154 150 173 174 169 158 159 164 158 162 175 177 167 166 163 163 164
3 1 358 356 355 353 352 351 349 348 345 343 343 342 339 337 334 332 329 326 324 320 318 311 299 291 291 294 291 287 282 281 277 268 257 229 207 202 194 188 190 196 193 185 186 188 187 182 179 178 175 177 191 196 200 212 208 199 176 202 224 213 213 236 228 188 165 155 161 169 170 162 167 172 166 160 144 157 162 151 151 137 140 154 159 161 163 164
1 359 357 354 353 351 350 349 348 346 343 342 341 341 339 337 333 330 327 325 323 320 317 313 303 291 289 292 293 292 287 292 282 271 265 236 237 213 193 183 184 196 197 194 191 191 194 186 178 176 175 185 194 192 199 204 200 203 206 236 239 228 245 270 259 215 186 157 152 168 172 169 174 168 162 159 152 169 175 157 149 139 144 152 158 162 163 164
359 357 355 353 351 350 349 347 346 344 342 341 340 340 338 335 331 328 326 323 322 319 318 315 307 293 289 292 295 297 295 300 286 269 247 216 224 207 196 184 184 194 194 197 193 191 196 185 176 174 175 194 203 199 208 210 196 188 203 221 237 193 224 260 255 240 202 163 159 165 169 180 176 169 167 160 152 195 194 176 169 158 155 157 160 164 164 165
358 356 354 352 350 349 348 347 345 342 341 340 339 338 336 334 330 328 326 323 322 321 321 317 310 297 288 293 295 293 302 319 284 205 174 203 222 205 195 184 185 190 188 192 189 185 189 179 172 171 177 195 200 208 224 219 210 202 221 230 243 201 207 254 255 244 204 169 158 156 169 184 174 174 175 167 167 201 194 185 178 168 165 165 164 165 165 168
358 356 355 353 352 350 348 347 345 342 340 339 339 338 335 333 331 330 327 324 324 324 323 317 312 300 288 292 290 276 250 268 213 170 177 207 215 200 192 184 183 185 184 189 187 182 182 175 170 173 182 191 196 209 224 218 216 237 240 236 244 242 246 254 259 235 192 167 163 172 181 173 166 185 182 179 193 198 190 184 179 174 171 168 165 165 168 172
356 355 354 353 353 352 350 349 347 343 341 340 340 338 335 334 333 331 326 324 326 328 324 318 316 300 289 286 278 266 241 253 262 204 227 217 171 184 187 185 181 181 184 187 188 182 177 174 174 178 177 184 205 214 222 216 219 239 261 249 245 240 243 247 247 225 191 178 183 182 177 167 169 188 186 191 201 193 184 181 177 173 169 166 165 168 171 174
355 353 352 353 353 352 350 349 348 344 344 343 341 339 337 336 334 330 325 323 327 330 323 319 321 303 291 282 269 269 254 266 288 221 219 205 172 179 182 183 181 183 185 189 191 186 180 176 179 180 178 199 203 209 216 218 223 233 248 252 253 243 244 251 245 218 203 197 193 180 170 183 185 183 186 198 197 185 177 174 172 168 166 166 168 171 174 176
355 352 351 353 352 352 349 349 349 346 346 345 343 342 341 337 333 328 322 324 328 327 321 318 321 310 295 275 260 277 268 279 285 214 203 196 205 183 182 183 185 186 188 191 193 190 183 179 185 181 177 206 205 211 205 209 231 222 235 247 259 259 257 263 249 213 207 205 195 181 179 197 193 185 191 201 193 178 170 169 168 167 167 170 172 174 175 177
355 352 352 353 353 352 349 349 348 346 347 346 345 344 343 337 330 327 325 328 325 321 320 315 315 312 298 268 225 244 256 272 235 196 193 202 215 180 183 186 187 188 190 191 192 192 189 187 188 183 182 207 213 227 205 207 233 226 241 254 259 264 266 265 259 221 208 204 193 186 194 204 192 185 197 195 185 171 164 165 167 168 170 173 175 177 178 179
356 354 353 353 355 353 350 349 346 346 347 345 345 343 344 338 327 329 330 328 325 329 336 330 322 307 295 259 220 223 224 205 171 172 178 204 213 183 186 187 185 188 190 191 194 196 196 195 185 182 199 217 210 230 226 228 245 254 260 267 259 262 263 257 259 224 203 202 197 186 183 200 184 189 190 168 170 167 162 163 167 170 173 176 177 178 180 182
356 355 353 352 355 354 350 348 344 346 346 345 343 340 344 341 330 329 330 330 335 358 359 352 339 310 297 258 239 236 204 201 187 165 159 234 221 190 191 191 189 191 192 191 196 199 198 194 183 182 195 206 191 206 237 239 244 254 257 269 268 269 265 252 253 220 196 199 199 181 130 203 181 201 183 162 165 165 163 163 168 172 174 177 177 179 183 184
355 355 354 351 354 355 351 346 343 345 347 345 339 337 343 341 334 329 328 328 334 354 351 349 338 311 288 257 249 239 196 221 225 192 193 261 227 197 195 195 195 200 202 199 197 199 197 192 188 193 200 206 209 231 281 264 244 245 240 248 266 279 273 251 247 218 197 197 188 173 178 228 202 204 174 163 164 161 161 165 169 173 175 177 178 180 184 185
354 353 353 351 353 354 350 346 343 344 346 342 335 336 341 341 337 329 325 312 299 326 337 339 333 311 261 258 268 263 249 245 231 211 208 238 219 201 198 195 198 201 205 207 201 199 198 194 192 203 218 233 256 278 306 315 255 244 228 230 240 249 269 253 230 201 195 192 177 170 221 220 213 197 169 165 166 162 163 168 171 174 176 178 180 182 184 187
353 351 352 352 351 351 350 346 343 344 344 339 333 336 341 342 336 327 319 297 299 316 328 329 324 302 266 272 283 269 257 248 232 234 233 230 213 199 199 196 200 200 200 203 202 201 199 195 197 210 229 238 255 282 301 314 276 242 213 237 221 209 258 270 230 190 191 187 173 174 218 213 215 180 166 167 168 165 166 170 173 175 178 180 182 184 186 189
352 349 350 351 350 350 350 346 344 343 343 337 331 336 341 340 335 324 307 290 297 312 321 324 317 291 281 282 294 259 248 233 224 242 226 223 215 202 198 196 202 203 202 201 201 203 200 197 202 217 231 243 245 239 280 305 286 242 204 235 217 196 243 274 262 199 190 175 173 185 182 184 212 170 167 168 169 169 167 172 176 177 180 182 184 187 187 189
351 348 347 349 350 351 349 347 344 343 342 336 331 337 340 338 337 328 304 288 303 315 316 314 306 285 266 256 318 15 311 249 241 240 203 208 213 206 199 198 203 205 205 205 206 204 199 198 201 216 225 232 214 176 224 256 248 251 210 226 228 210 224 238 282 224 190 169 178 197 200 191 178 165 168 171 172 170 170 175 178 181 183 184 185 188 189 190
350 347 345 347 350 350 349 346 344 343 341 335 332 337 337 338 346 340 314 321 318 322 321 300 321 306 265 265 302 309 305 291 279 266 231 205 202 201 202 203 204 202 202 209 214 201 191 193 193 205 216 217 214 185 204 221 220 225 194 209 243 227 230 223 257 237 183 175 183 196 210 208 167 164 170 174 174 173 175 178 180 183 185 186 187 187 190 192
349 347 345 346 349 351 349 345 345 345 340 335 334 336 339 349 1 31 328 329 322 327 326 282 282 276 282 295 298 296 296 292 289 281 247 208 199 196 199 204 204 196 185 187 210 195 183 180 182 200 216 211 211 206 211 229 232 205 180 196 227 229 243 231 247 240 179 178 193 196 203 196 169 169 173 176 178 177 178 180 183 186 187 189 190 190 191 193
348 346 344 346 348 351 350 346 348 349 344 340 339 346 359 2 8 348 330 328 320 314 300 291 275 266 281 300 311 312 301 288 280 268 223 181 193 192 194 196 191 187 179 175 192 187 182 183 199 206 211 208 212 210 209 233 251 241 200 208 223 231 255 240 244 255 187 178 204 200 191 190 180 176 177 177 178 181 180 182 186 187 188 191 193 194 194 195
348 344 343 344 346 349 350 347 349 353 351 346 352 11 23 10 7 325 331 328 325 323 309 309 293 276 294 312 329 329 309 296 257 234 206 184 185 185 193 193 180 186 195 187 175 178 181 201 218 211 204 203 211 204 193 213 234 249 237 229 244 231 250 259 250 263 206 191 218 200 180 195 192 182 179 176 178 186 186 185 188 187 189 193 195 197 198 199
348 342 340 343 345 348 351 349 352 356 353 350 8 29 31 12 4 335 331 315 317 322 316 328 311 304 330 333 346 335 290 290 256 229 207 195 199 186 187 188 188 200 195 185 178 175 189 221 222 203 177 186 206 193 191 208 218 233 237 234 256 239 263 278 264 260 217 206 226 194 184 204 201 190 182 179 184 192 191 190 189 187 189 193 195 198 199 200
350 343 339 342 344 347 351 352 356 357 356 0 17 26 20 7 2 348 339 294 303 316 326 350 331 344 351 348 358 346 233 244 269 244 225 202 208 196 185 185 196 201 190 190 196 182 195 229 214 178 163 186 209 203 192 206 217 221 221 224 243 237 180 252 262 260 213 215 219 185 195 210 202 198 191 190 192 193 195 195 192 190 190 193 196 198 198 198
351 344 340 341 343 347 350 351 356 358 360 10 17 17 10 1 359 352 340 287 286 308 326 5 353 357 355 345 346 338 232 228 263 263 267 250 220 203 195 193 191 204 203 195 204 205 228 240 169 158 180 190 207 218 199 204 224 224 220 224 230 230 222 232 297 328 300 267 233 159 217 252 195 196 207 201 198 198 197 196 196 197 197 196 197 199 199 199
352 346 341 342 343 346 351 353 355 357 0 11 10 4 4 357 354 350 342 309 293 294 280 5 354 360 357 350 343 326 242 236 285 308 304 259 241 222 203 200 192 208 207 194 206 215 237 237 167 168 190 191 204 218 210 204 219 235 226 223 220 230 241 244 329 332 321 298 262 147 215 288 204 194 204 201 199 205 199 194 199 203 201 198 199 200 201 202
353 347 341 342 342 345 353 358 359 1 1 2 358 353 355 353 347 343 356 47 323 286 313 357 354 1 358 356 350 340 212 303 327 332 326 272 248 240 207 201 198 209 196 184 212 218 226 222 182 184 192 192 207 216 215 200 205 239 226 218 215 227 248 242 22 269 243 264 264 154 184 265 240 201 204 194 196 205 197 196 203 201 199 198 200 201 202 204
353 348 341 341 344 345 353 360 1 4 0 352 346 346 348 347 341 328 20 44 336 334 356 349 351 350 349 357 5 11 194 331 343 356 351 320 259 242 221 205 198 200 175 172 220 209 198 197 192 200 194 194 210 214 209 190 202 236 216 200 199 220 244 231 187 239 245 277 284 261 178 235 250 216 210 194 196 205 197 200 205 200 199 200 202 202 202 204
352 348 339 341 347 346 351 359 359 2 358 346 341 343 343 341 335 122 74 123 319 8 4 339 342 340 341 352 20 30 15 357 357 342 349 342 248 239 226 216 215 199 173 189 214 190 187 195 194 199 200 203 211 211 199 189 214 234 170 179 190 216 242 212 172 237 254 296 280 268 202 223 263 235 217 199 196 203 202 203 203 199 201 202 203 204 203 205
351 347 338 339 350 348 349 356 355 355 353 346 341 339 338 337 121 107 65 207 318 17 3 344 347 341 339 344 22 24 16 28 9 333 351 9 269 239 226 227 228 227 209 207 215 189 189 197 190 197 213 212 212 213 194 195 224 204 146 179 201 227 242 183 169 218 224 233 255 256 215 204 274 248 209 203 202 204 205 205 203 201 202 202 203 204 204 205
351 346 336 339 353 352 350 355 355 352 348 345 341 338 337 86 110 87 33 232 25 6 356 356 350 336 335 335 8 14 13 20 2 351 0 15 21 4 255 243 216 233 242 223 220 220 222 200 189 198 217 203 192 209 202 205 216 170 153 205 258 257 254 157 170 188 220 236 245 250 225 183 257 260 200 201 207 204 204 205 205 205 205 205 204 203 203 204
351 342 335 346 360 355 349 349 351 347 344 345 343 340 347 121 68 104 200 314 343 348 356 4 348 336 338 340 350 360 8 12 4 4 4 9 24 29 7 309 275 281 254 238 233 232 242 220 193 200 209 194 171 203 210 209 211 198 179 192 250 284 301 274 161 166 221 237 243 246 226 193 229 257 211 206 210 205 202 200 200 204 205 205 206 205 203 204
351 343 342 359 3 357 346 337 336 338 341 347 342 339 5 102 17 151 278 334 332 345 1 350 341 335 329 335 353 353 356 14 9 10 10 6 18 35 39 25 335 294 227 222 231 226 229 230 231 219 207 195 182 199 210 206 206 207 190 175 199 232 235 222 197 188 223 237 244 227 200 204 228 235 212 206 212 212 207 203 199 200 203 203 203 204 204 204
353 347 354 13 2 355 347 333 329 334 339 342 338 336 78 91 15 200 331 346 327 337 346 330 333 331 323 341 11 359 356 27 19 5 5 21 26 41 49 31 17 4 263 216 187 189 216 226 225 226 216 198 193 191 194 203 199 199 197 185 192 196 207 216 214 229 226 240 246 209 173 217 234 232 211 198 207 214 212 211 206 202 202 201 201 201 202 204
357 355 10 22 10 3 352 337 333 336 338 340 339 355 82 76 195 43 11 256 252 315 324 336 335 334 348 5 10 12 20 24 17 7 359 24 27 18 24 25 23 16 344 297 203 195 218 226 212 213 206 181 196 202 187 183 190 202 198 185 201 201 194 203 197 203 207 237 248 201 174 202 192 216 211 193 202 209 211 215 212 208 208 204 201 199 200 202
0 3 357 355 359 2 350 338 336 341 342 345 352 53 77 75 228 17 316 242 262 318 324 348 351 348 8 359 352 23 36 6 4 6 13 36 45 25 15 20 22 18 12 345 349 345 246 240 198 218 216 180 197 207 183 175 194 207 191 192 215 199 158 194 203 184 167 209 240 206 199 216 204 247 237 193 202 205 208 213 210 210 212 207 201 199 199 201
359 336 314 345 323 342 348 340 337 342 346 359 33 56 37 186 195 213 212 245 276 315 342 358 1 8 12 339 329 11 19 3 2 4 21 44 61 43 26 25 27 23 18 356 295 349 307 274 337 320 278 222 205 193 180 188 192 175 190 206 208 143 149 219 240 217 123 193 231 204 211 254 269 267 254 170 194 206 206 208 204 203 204 199 199 201 201 202
357 329 303 3 351 338 338 331 330 337 355 40 71 19 240 198 254 260 262 318 272 335 49 34 1 8 8 337 328 2 10 5 4 10 25 25 46 50 38 27 32 22 359 346 275 336 343 288 299 300 272 271 246 203 195 195 180 155 197 200 131 101 167 200 226 268 204 217 256 211 192 213 193 234 235 158 177 205 206 204 203 201 195 191 197 202 202 203
355 342 336 2 352 341 333 320 321 333 22 76 55 303 197 111 353 336 344 348 303 21 66 97 356 15 8 350 334 357 12 19 12 18 27 14 30 55 49 13 25 18 346 337 326 308 333 301 290 256 227 303 312 229 212 205 199 203 190 161 144 166 198 183 194 228 214 225 278 284 220 204 192 219 220 184 180 193 202 205 206 203 194 191 197 200 201 203
358 1 3 347 337 342 345 326 339 29 63 68 10 299 276 12 12 6 8 10 353 54 51 335 357 18 3 11 357 359 25 41 25 19 28 22 3 45 45 17 358 6 345 335 337 315 328 312 291 302 324 327 317 215 210 216 212 209 175 157 170 189 193 188 187 193 202 223 250 274 266 228 222 215 193 193 191 183 190 202 206 206 200 195 197 199 200 200
4 13 355 339 332 339 349 346 54 60 62 40 329 315 313 352 27 11 8 8 355 108 39 322 31 28 352 11 4 353 29 73 45 22 30 35 9 31 42 23 350 351 342 330 326 322 335 16 284 312 338 326 259 199 196 209 215 208 196 186 189 194 173 189 205 155 160 200 200 226 260 253 248 219 189 199 204 189 182 190 202 208 205 201 198 199 200 200
7 12 336 341 344 348 356 34 40 35 66 44 344 320 330 1 25 7 5 4 354 26 57 82 84 67 8 19 10 332 351 79 66 32 41 37 20 17 28 18 355 343 338 330 346 334 313 353 295 297 326 309 250 262 322 332 293 245 222 207 201 199 149 178 228 218 150 186 178 184 246 262 250 205 191 199 208 205 186 183 195 202 204 205 201 200 201 201
5 8 341 352 360 358 21 76 28 3 79 21 333 311 335 0 11 1 3 2 359 8 13 31 91 67 35 18 350 322 347 71 93 57 60 28 5 347 1 4 355 344 339 322 318 322 309 304 293 280 280 264 262 271 288 295 285 266 252 229 205 194 164 186 221 216 186 209 173 133 258 267 252 208 199 201 209 214 195 183 191 199 202 205 203 202 202 202
350 346 3 14 9 2 49 84 13 4 55 353 334 329 340 355 15 10 8 10 9 357 354 16 81 57 29 347 352 346 351 36 132 95 74 17 354 353 353 358 354 347 343 326 312 330 330 326 316 304 288 274 270 267 269 273 268 271 283 265 227 215 198 199 209 181 184 214 195 210 270 268 268 235 217 224 226 226 199 183 190 200 204 206 205 202 202 202
338 328 3 22 20 25 65 71 356 9 5 347 346 351 351 358 17 13 12 24 19 346 331 12 27 40 15 354 20 9 357 21 162 173 69 129 5 3 356 355 353 346 334 321 323 339 338 345 354 339 324 295 278 252 268 332 10 347 301 291 283 250 210 193 127 157 206 211 182 195 246 254 276 305 286 282 259 251 221 189 194 202 204 207 206 202 200 200
344 327 346 7 27 51 69 74 29 353 342 355 353 345 349 354 15 19 19 30 19 360 338 6 19 35 27 7 18 6 7 34 54 213 57 349 294 351 349 348 342 333 321 314 318 330 322 287 343 336 283 257 246 224 277 331 338 314 290 293 304 291 241 211 146 167 222 211 172 198 235 254 291 302 287 283 262 260 255 199 199 207 205 204 203 200 199 199
4 349 335 346 20 53 63 58 35 20 340 5 360 340 350 342 356 10 13 26 19 5 349 360 23 30 21 12 11 341 345 15 343 12 161 230 266 218 320 335 323 323 335 331 331 336 294 245 238 217 239 254 261 282 289 289 289 287 290 294 297 297 284 255 182 183 200 179 187 216 229 253 275 274 270 272 266 270 268 209 196 208 206 201 198 196 197 197
22 70 350 338 355 31 45 36 25 13 317 331 334 300 348 355 352 357 0 13 12 3 350 15 35 32 3 360 357 303 315 337 317 313 194 235 253 226 265 310 306 327 1 348 330 328 251 271 271 233 247 260 268 280 284 281 273 267 277 287 284 284 286 267 233 203 157 153 221 230 204 232 251 251 255 263 269 284 279 231 198 202 199 196 195 193 194 195
29 111 70 23 339 360 22 352 349 340 315 321 318 278 349 7 14 2 349 345 358 9 11 9 22 18 343 342 345 292 320 330 295 302 252 242 265 254 265 285 287 334 11 349 322 316 224 259 280 268 278 281 277 277 274 268 260 257 261 269 275 276 270 257 248 213 156 178 225 214 183 217 242 246 250 257 259 262 260 235 215 204 193 190 191 189 190 192
36 98 48 26 331 295 291 306 316 320 316 320 328 10 360 3 9 4 341 326 339 13 33 355 337 343 329 323 350 304 307 303 282 291 255 258 287 277 241 277 280 336 2 333 311 303 265 253 285 304 303 294 286 275 262 261 273 280 274 267 272 273 261 252 249 215 181 198 217 193 194 219 238 243 250 261 256 245 246 235 221 202 188 186 188 187 189 189
16 26 334 347 318 289 287 301 315 323 326 324 326 4 350 349 357 349 331 316 306 335 21 350 317 320 315 307 311 273 265 250 251 262 249 268 290 249 195 226 230 237 297 300 310 307 290 291 323 331 317 299 293 286 285 296 296 284 279 290 301 285 251 237 242 224 199 207 213 189 205 235 252 251 261 301 314 264 236 212 208 199 189 187 187 187 189 189
311 296 311 328 315 297 297 308 321 318 312 314 329 357 356 347 347 339 314 286 282 301 330 323 310 311 309 303 290 276 283 275 264 269 268 264 260 248 237 202 185 201 263 204 256 300 298 299 334 2 334 292 297 329 322 316 305 274 284 330 332 321 259 189 164 34 248 216 193 171 198 244 268 276 277 352 16 2 308 238 222 208 191 185 187 188 188 189
301 290 297 307 304 313 314 311 322 311 285 313 338 349 341 317 327 337 317 304 303 302 306 305 301 303 305 295 283 289 298 294 284 280 277 272 266 262 258 230 196 193 219 177 189 266 267 271 334 19 319 281 302 327 317 317 321 278 299 1 348 353 27 46 50 28 355 274 184 192 220 255 280 285 262 53 42 18 350 351 283 230 202 190 189 188 189 190